• Join FlightAware (Why Join?)
  • Login
  • US Flag 
06:47AM EDT


 

Airport Tracker/Info


-or-


 

Live Flight TrackerFlight Track Log ✈ VNR160 ✈ 30-Apr-2013 ✈ KPSP - KBDN

Flight Track Log - Related Links

Times and Time Zones

All times are in EDT time to prevent confusion due to time zone crossing. See the VNR160 flight status page for this flight to view local times or setup timezone preferences in your user account.

Time Position Orientation Groundspeed Altitude Reporting Facility
EDT Latitude Longitude Course Direction KTS MPH feet Rate Location/Type
11:07AM 33.8500 -116.5256 322° Northwest 159 183 34,000  Level Los Angeles Center
11:08AM 33.8853 -116.5583 322° Northwest 160 184 34,000  Level Los Angeles Center
11:09AM 33.9250 -116.5822 333° Northwest 162 186 34,000 -12,780 Level Los Angeles Center
11:10AM 33.9714 -116.5781 North 184 212 7,600 -11,820 Descending Los Angeles Center
11:11AM 34.0236 -116.5572 18° North 196 226 9,600 1,560 Climbing Los Angeles Center
11:12AM 34.0808 -116.5328 19° North 210 242 10,900 1,500 Climbing Los Angeles Center
11:14AM 34.1506 -116.5383 356° North 233 268 12,800 1,620 Climbing Los Angeles Center
11:15AM 34.2161 -116.5636 342° North 243 280 14,300 1,380 Climbing Los Angeles Center
11:16AM 34.2844 -116.5908 342° North 253 291 15,700 1,440 Climbing Los Angeles Center
11:17AM 34.3697 -116.6258 341° North 266 306 17,300 1,560 Climbing Los Angeles Center
11:18AM 34.3981 -116.7061 293° West 267 307 19,000 1,440 Climbing Los Angeles Center
11:19AM 34.4125 -116.7928 281° West 263 303 20,400 1,260 Climbing Los Angeles Center
11:20AM 34.4281 -116.8806 282° West 267 307 21,700 1,140 Climbing Los Angeles Center
11:21AM 34.4456 -116.9733 283° West 277 319 22,800 1,080 Climbing Los Angeles Center
11:22AM 34.4614 -117.0700 281° West 288 331 24,000 720 Climbing Los Angeles Center
11:23AM 34.4839 -117.1944 282° West 309 356 24,400 600 Climbing Los Angeles Center
11:24AM 34.5031 -117.3019 282° West 323 372 25,300 1,080 Climbing Los Angeles Center
11:25AM 34.5208 -117.4061 282° West 321 369 26,700 1,260 Climbing Los Angeles Center
11:26AM 34.5378 -117.5064 282° West 311 358 28,000 1,020 Climbing Los Angeles Center
11:27AM 34.5556 -117.6053 282° West 304 350 28,900 900 Climbing Los Angeles Center
11:28AM 34.5761 -117.7261 282° West 306 352 29,900 780 Climbing Los Angeles Center
11:29AM 34.5931 -117.8297 281° West 312 359 30,600 600 Climbing Los Angeles Center
11:30AM 34.6108 -117.9353 282° West 318 366 31,200 480 Climbing Los Angeles Center
11:31AM 34.6294 -118.0406 282° West 321 369 31,700 360 Climbing Los Angeles Center
11:32AM 34.6797 -118.1325 304° West 329 379 32,000 300 Climbing Los Angeles Center
11:33AM 34.7519 -118.2353 311° West 336 387 32,400 420 Climbing Los Angeles Center
11:34AM 34.8092 -118.3200 309° West 328 377 32,900 480 Climbing Los Angeles Center
11:35AM 34.8678 -118.4036 311° West 327 376 33,400 480 Climbing Los Angeles Center
11:36AM 34.9278 -118.4906 310° West 324 373 34,000 240 Climbing Los Angeles Center
11:37AM 34.9869 -118.5769 310° West 331 381 34,000  Level Los Angeles Center
11:38AM 35.0675 -118.6294 332° Northwest 335 386 34,000  Level Los Angeles Center
11:39AM 35.1786 -118.6567 349° North 339 390 34,000  Level Los Angeles Center
11:40AM 35.2731 -118.6803 348° North 345 397 34,000  Level Los Angeles Center
11:41AM 35.3669 -118.7039 348° North 346 398 34,000  Level Los Angeles Center
11:42AM 35.4606 -118.7278 348° North 345 397 34,000  Level Los Angeles Center
11:44AM 35.5547 -118.7511 349° North 346 398 34,000  Level Los Angeles Center
11:44AM 35.6481 -118.7756 348° North 346 398 34,000  Level Oakland Center
11:45AM 35.7400 -118.7981 349° North 340 391 34,000  Level Oakland Center
11:46AM 35.8350 -118.8225 348° North 346 398 34,000  Level Oakland Center
11:47AM 35.9264 -118.8456 348° North 338 389 34,000  Level Oakland Center
11:48AM 36.0208 -118.8711 348° North 344 396 34,000  Level Oakland Center
11:49AM 36.1133 -118.8939 349° North 342 394 34,000  Level Oakland Center
11:51AM 36.2069 -118.9181 348° North 343 395 34,000  Level Oakland Center
11:52AM 36.3014 -118.9428 348° North 346 398 34,000  Level Oakland Center
11:53AM 36.4133 -118.9719 348° North 344 396 34,000  Level Oakland Center
11:54AM 36.5058 -118.9967 348° North 341 392 34,000  Level Oakland Center
11:55AM 36.5997 -119.0206 348° North 344 396 34,000  Level Oakland Center
11:56AM 36.6933 -119.0444 348° North 345 397 34,000  Level Oakland Center
11:57AM 36.7869 -119.0689 348° North 344 396 34,000  Level Oakland Center
11:58AM 36.8806 -119.0939 348° North 345 397 34,000  Level Oakland Center
11:59AM 36.9742 -119.1183 348° North 345 397 34,000  Level Oakland Center
12:00PM 37.0686 -119.1431 348° North 346 398 34,000  Level Oakland Center
12:01PM 37.1822 -119.1725 348° North 349 402 34,000  Level Oakland Center
12:02PM 37.2756 -119.1981 348° North 345 397 34,000  Level Oakland Center
12:03PM 37.3689 -119.2228 348° North 345 397 34,000  Level Oakland Center
12:04PM 37.4628 -119.2472 348° North 344 396 34,000  Level Oakland Center
12:05PM 37.5547 -119.2722 348° North 339 390 34,000  Level Oakland Center
12:06PM 37.6575 -119.2992 348° North 338 389 34,000  Level Oakland Center
12:07PM 37.7492 -119.3228 348° North 338 389 34,000  Level Oakland Center
12:08PM 37.8408 -119.3481 348° North 338 389 34,000  Level Oakland Center
12:09PM 37.9319 -119.3733 348° North 337 388 34,000  Level Oakland Center
12:10PM 38.0239 -119.3978 348° North 338 389 34,000  Level Oakland Center
12:11PM 38.1144 -119.4231 348° North 334 384 34,000  Level Oakland Center
12:12PM 38.2222 -119.4508 349° North 340 391 34,000  Level Oakland Center
12:13PM 38.2989 -119.4722 348° North 339 390 34,000  Level Oakland Center
12:14PM 38.4083 -119.5028 348° North 336 387 34,000  Level Oakland Center
12:15PM 38.4972 -119.5264 348° North 336 387 34,000  Level Oakland Center
12:16PM 38.5886 -119.5511 348° North 333 383 34,000  Level Oakland Center
12:17PM 38.6800 -119.5767 348° North 335 386 34,000  Level Oakland Center
12:18PM 38.7717 -119.6014 348° North 333 383 34,000  Level Oakland Center
12:19PM 38.8639 -119.6275 348° North 337 388 34,000  Level Oakland Center
12:20PM 38.9533 -119.6519 348° North 331 381 34,000  Level Oakland Center
12:21PM 39.0422 -119.6769 348° North 327 376 34,000  Level Oakland Center
12:22PM 39.1303 -119.7022 347° North 325 374 34,000  Level Oakland Center
12:23PM 39.2361 -119.7311 348° North 323 372 34,000  Level Oakland Center
12:24PM 39.3233 -119.7558 348° North 321 369 34,000  Level Oakland Center
12:25PM 39.4111 -119.7806 348° North 322 371 34,000  Level Oakland Center
12:26PM 39.4969 -119.8042 348° North 317 365 34,000  Level Oakland Center
12:27PM 39.5839 -119.8297 347° North 317 365 34,000  Level Oakland Center
12:28PM 39.6703 -119.8528 348° North 317 365 34,000  Level Oakland Center
12:29PM 39.7572 -119.8775 348° North 318 366 34,000  Level Oakland Center
12:30PM 39.8425 -119.9031 347° North 315 362 34,000  Level Oakland Center
12:31PM 39.9275 -119.9269 348° North 313 360 34,000  Level Oakland Center
12:32PM 40.0128 -119.9519 347° North 313 360 34,000  Level Oakland Center
12:33PM 40.0956 -119.9761 347° North 306 352 34,000  Level Oakland Center
12:34PM 40.1972 -120.0064 347° North 310 357 34,000  Level Oakland Center
12:36PM 40.2808 -120.0308 347° North 309 356 34,000  Level Oakland Center
12:37PM 40.3653 -120.0547 348° North 309 356 34,000  Level Oakland Center
12:38PM 40.4489 -120.0794 347° North 309 356 34,000  Level Oakland Center
12:39PM 40.5328 -120.1033 348° North 307 353 34,000  Level Oakland Center
12:40PM 40.6200 -120.1269 348° North 315 362 34,000  Level Oakland Center
12:40PM 40.6681 -120.1433 345° North 303 349 34,000  Level Seattle Center
12:41PM 40.7486 -120.1675 347° North 297 342 34,000  Level Seattle Center
12:42PM 40.8333 -120.1903 349° North 305 351 34,000  Level Seattle Center
12:43PM 40.9156 -120.2133 348° North 303 349 34,000  Level Seattle Center
12:44PM 40.9956 -120.2389 346° North 300 345 34,000  Level Seattle Center
12:45PM 41.0772 -120.2622 348° North 300 345 34,000  Level Seattle Center
12:46PM 41.1600 -120.2858 348° North 303 349 34,000  Level Seattle Center
12:47PM 41.2417 -120.3106 347° North 302 348 34,000  Level Seattle Center
12:48PM 41.3397 -120.3397 347° North 301 346 34,000  Level Seattle Center
12:49PM 41.4208 -120.3653 347° North 301 346 34,000  Level Seattle Center
12:50PM 41.4853 -120.4233 326° Northwest 285 328 34,000  Level Seattle Center
12:51PM 41.5542 -120.4767 330° Northwest 287 330 34,000  Level Seattle Center
12:52PM 41.6233 -120.5308 330° Northwest 288 331 34,000  Level Seattle Center
12:53PM 41.6925 -120.5842 330° Northwest 287 330 34,000  Level Seattle Center
12:54PM 41.7622 -120.6381 330° Northwest 288 331 34,000  Level Seattle Center
12:55PM 41.8300 -120.6908 330° Northwest 283 326 34,000  Level Seattle Center
12:56PM 41.8989 -120.7444 330° Northwest 285 328 34,000  Level Seattle Center
12:57PM 41.9669 -120.8003 329° Northwest 286 329 34,000  Level Seattle Center
12:58PM 42.0383 -120.8461 335° Northwest 287 330 34,000  Level Seattle Center
01:00PM 42.1144 -120.8819 341° North 290 334 34,000  Level Seattle Center
01:01PM 42.1892 -120.9175 341° North 286 329 34,000 -240 Level Seattle Center
01:02PM 42.2800 -120.9606 341° North 288 331 33,600 -840 Descending Seattle Center
01:03PM 42.3581 -121.0067 336° Northwest 302 348 32,400 -1,200 Descending Seattle Center
01:04PM 42.4347 -121.0575 334° Northwest 307 353 31,200 -1,320 Descending Seattle Center
01:05PM 42.5139 -121.0919 342° North 304 350 29,800 -1,440 Descending Seattle Center
01:06PM 42.5986 -121.1094 351° North 309 356 28,300 -1,500 Descending Seattle Center
01:07PM 42.6831 -121.1244 353° North 307 353 26,800 -1,500 Descending Seattle Center
01:08PM 42.7650 -121.1403 352° North 297 342 25,300 -1,560 Descending Seattle Center
01:09PM 42.8392 -121.1692 344° North 278 320 23,700 -1,500 Descending Seattle Center
01:10PM 42.9122 -121.2058 340° North 278 320 22,300 -1,500 Descending Seattle Center
01:11PM 42.9889 -121.2406 342° North 286 329 20,700 -1,500 Descending Seattle Center
01:12PM 43.0611 -121.2756 341° North 280 322 19,300 -1,440 Descending Seattle Center
01:13PM 43.1328 -121.2947 349° North 270 311 17,800 -1,560 Descending Seattle Center
01:14PM 43.2228 -121.2858 North 271 312 16,200 -1,440 Descending Seattle Center
01:15PM 43.2997 -121.2786 North 275 316 14,900 -1,260 Descending Seattle Center
01:16PM 43.3758 -121.2694 North 275 316 13,700 -1,200 Descending Seattle Center
01:17PM 43.4478 -121.2631 North 263 303 12,500 -1,200 Descending Seattle Center
01:18PM 43.5208 -121.2550 North 263 303 11,300 -1,200 Descending Seattle Center
01:19PM 43.5964 -121.2506 North 266 306 10,100 -660 Descending Seattle Center
01:20PM 43.6697 -121.2417 North 266 306 10,000 -60 Descending Seattle Center
01:21PM 43.7439 -121.2344 North 266 306 10,000  Level Seattle Center
01:22PM 43.8167 -121.2244 North 265 305 10,000 -60 Level Seattle Center
01:23PM 43.8714 -121.2169 North 207 238 9,900 -120 Descending Seattle Center